TimeCDT,TemperatureF,Dew PointF,Humidity,Sea Level PressureIn,VisibilityMPH,Wind Direction,Wind SpeedMPH,Gust SpeedMPH,PrecipitationIn,Events,Conditions,WindDirDegrees,DateUTC
12:53 AM,55.9,54.0,93,29.92,8.0,Calm,Calm,-,N/A,,Overcast,0,2012-10-03 05:53:00
1:53 AM,57.9,55.0,90,29.91,9.0,North,5.8,-,N/A,,Overcast,360,2012-10-03 06:53:00
2:53 AM,57.9,55.0,90,29.91,10.0,North,3.5,-,N/A,,Overcast,10,2012-10-03 07:53:00
3:53 AM,59.0,55.9,90,29.91,10.0,North,4.6,-,N/A,,Overcast,10,2012-10-03 08:53:00
4:53 AM,59.0,55.9,90,29.91,9.0,North,4.6,-,N/A,,Overcast,350,2012-10-03 09:53:00
5:53 AM,59.0,55.9,90,29.94,7.0,North,5.8,-,N/A,,Overcast,360,2012-10-03 10:53:00
6:53 AM,57.9,55.9,93,29.95,5.0,Calm,Calm,-,N/A,,Overcast,0,2012-10-03 11:53:00
7:53 AM,60.1,55.9,86,29.96,6.0,Calm,Calm,-,N/A,,Overcast,0,2012-10-03 12:53:00
8:53 AM,61.0,57.0,87,29.96,9.0,North,3.5,-,N/A,,Overcast,350,2012-10-03 13:53:00
9:53 AM,64.0,57.9,80,29.96,9.0,NNE,4.6,-,N/A,,Overcast,30,2012-10-03 14:53:00
10:39 AM,62.6,57.2,82,29.95,8.0,ENE,6.9,-,N/A,,Overcast,70,2012-10-03 15:39:00
10:53 AM,63.0,57.9,84,29.95,6.0,East,8.1,-,0.00,Rain,Light Rain,90,2012-10-03 15:53:00
11:06 AM,62.6,57.2,82,29.95,7.0,East,9.2,-,0.00,,Overcast,80,2012-10-03 16:06:00
11:33 AM,64.4,57.2,77,29.95,9.0,East,4.6,-,0.00,,Overcast,80,2012-10-03 16:33:00
11:53 AM,64.9,57.9,78,29.96,2.5,ENE,6.9,-,0.00,,Light Drizzle,60,2012-10-03 16:53:00
12:17 PM,62.6,60.8,94,29.96,2.5,ENE,6.9,-,0.02,,Light Drizzle,60,2012-10-03 17:17:00
12:53 PM,62.1,59.0,90,29.95,2.0,NNE,6.9,-,0.04,Rain,Light Rain,20,2012-10-03 17:53:00
1:53 PM,62.1,59.0,90,29.94,2.0,North,5.8,-,0.01,,Overcast,360,2012-10-03 18:53:00
2:00 PM,62.6,57.2,82,29.94,3.0,North,6.9,-,N/A,,Overcast,10,2012-10-03 19:00:00
2:53 PM,62.1,57.0,84,29.94,3.0,NNE,5.8,-,N/A,,Haze,20,2012-10-03 19:53:00
4:53 PM,62.1,55.9,80,29.96,10.0,North,3.5,-,N/A,,Overcast,350,2012-10-03 21:53:00
5:53 PM,62.1,55.9,80,29.96,9.0,North,3.5,-,N/A,,Overcast,350,2012-10-03 22:53:00
6:53 PM,60.1,57.0,90,29.97,9.0,West,3.5,-,N/A,,Overcast,260,2012-10-03 23:53:00
7:51 PM,60.8,57.2,88,29.98,5.0,West,4.6,-,N/A,,Overcast,280,2012-10-04 00:51:00
8:53 PM,57.9,55.0,90,29.99,4.0,West,4.6,-,N/A,,Overcast,260,2012-10-04 01:53:00
9:53 PM,59.0,55.9,90,30.00,4.0,SW,4.6,-,0.00,Rain,Light Rain,230,2012-10-04 02:53:00
10:53 PM,60.1,57.0,90,30.01,4.0,SSW,6.9,-,0.00,,Overcast,210,2012-10-04 03:53:00
11:53 PM,60.1,57.0,90,30.01,4.0,SSW,4.6,-,N/A,,Overcast,210,2012-10-04 04:53:00